FW5872 Potomac MD US current weather conditions

sailwx.info

Wind from 314 at 0 knots gusting 5

Air temperature 5.6° C
Dewpoint -2.3° C

Last reported at 2020-Jan-28 22:00 UTC.
Time now 2020-Jan-28 22:43 UTC

Location: N 39°03' W 077°11'.
View on Google Maps.

See reports from other nearby stations

  
Tides and Currents Weather Stations Pressure Air Temp Water Temp Dewpoint Dewpoint Depression Visibility Wind Speed Wind Dir Waves Ship Positions
date/time (UTC)wind fromknots sea level pressurealtimeterstation pressurevisibilityair tempwater tempwave heightnotes
2020-Jan-28 22:00 314 0 gusting 5 5.6
2020-Jan-28 21:45 312 0 gusting 2 6.1
2020-Jan-28 21:30 285 0 gusting 3 6.1
2020-Jan-28 21:15 258 1 gusting 9 6.1
2020-Jan-28 21:00 340 1 gusting 3 6.1
2020-Jan-28 20:46 321 0 gusting 2 6.1
2020-Jan-28 20:30 321 0 gusting 3 6.1
2020-Jan-28 20:15 333 0 gusting 2 6.1
2020-Jan-28 20:00 291 0 gusting 1 6.1
2020-Jan-28 19:45 288 0 gusting 3 6.7
2020-Jan-28 19:30 276 1 gusting 4 6.7
2020-Jan-28 19:15 295 0 gusting 6 7.2
2020-Jan-28 19:00 328 0 gusting 3 6.7
2020-Jan-28 18:45 323 0 gusting 6 6.7
2020-Jan-28 18:31 319 1 gusting 6 6.7
2020-Jan-28 18:15 325 0 gusting 2 6.1
2020-Jan-28 18:00 302 0 gusting 5 6.1
2020-Jan-28 17:45 301 0 gusting 3 6.1
2020-Jan-28 17:30 319 1 gusting 6 6.1
2020-Jan-28 17:15 6.1
2020-Jan-28 17:00 265 1 gusting 5 5.6
2020-Jan-28 16:45 327 1 gusting 5 5.6
2020-Jan-28 16:30 047 0 gusting 6 6.1
2020-Jan-28 16:15 282 2 gusting 7 6.7
2020-Jan-28 16:00 261 0 gusting 4 6.1
2020-Jan-28 15:45 328 0 gusting 4 6.1
2020-Jan-28 15:30 326 0 gusting 5 6.7
2020-Jan-28 15:15 212 0 gusting 3 6.1
2020-Jan-28 15:00 268 1 gusting 5 5.6
2020-Jan-28 14:45 293 0 gusting 5 5.6
2020-Jan-28 14:30 324 1 gusting 4 5.0
2020-Jan-28 14:15 308 0 gusting 3 4.4
2020-Jan-28 14:00 044 4.4
2020-Jan-28 13:45 281 3.9
2020-Jan-28 13:30 309 0 gusting 3 3.3
2020-Jan-28 13:15 267 2.8
2020-Jan-28 13:00 269 0 gusting 2 2.8
2020-Jan-28 12:45 247 2.2
2020-Jan-28 12:31 2.8
2020-Jan-28 12:15 2.8
2020-Jan-28 12:00 273 3.3
2020-Jan-28 11:45 327 3.3
2020-Jan-28 11:30 3.3
2020-Jan-28 11:15 331 3.3
2020-Jan-28 11:00 274 0 gusting 4 3.3
2020-Jan-28 10:45 3.3
2020-Jan-28 10:30 3.3
2020-Jan-28 10:15 297 1 gusting 4 3.3
2020-Jan-28 10:00 314 0 gusting 4 3.3
2020-Jan-28 09:46 284 3.3
2020-Jan-28 09:30 304 0 gusting 2 3.3
2020-Jan-28 09:15 293 0 gusting 2 3.3
2020-Jan-28 09:00 321 0 gusting 3 3.3
2020-Jan-28 08:45 284 0 gusting 2 3.3
2020-Jan-28 08:30 309 0 gusting 2 3.3
2020-Jan-28 08:15 304 0 gusting 4 3.3
2020-Jan-28 08:00 269 3.3
2020-Jan-28 07:45 3.3
2020-Jan-28 07:30 312 0 gusting 7 3.3
2020-Jan-28 07:15 271 0 gusting 2 3.3
2020-Jan-28 07:00 278 3.3
2020-Jan-28 06:45 305 3.9
2020-Jan-28 06:30 3.9
2020-Jan-28 06:15 3.9
2020-Jan-28 06:00 3.9
2020-Jan-28 05:45 333 3.9
2020-Jan-28 05:30 065 3.9
2020-Jan-28 05:15 316 3.9
2020-Jan-28 05:00 3.9
2020-Jan-28 04:45 278 1 gusting 5 3.9
2020-Jan-28 04:30 277 0 gusting 2 3.9
2020-Jan-28 04:15 275 3.9
2020-Jan-28 04:00 278 0 gusting 4 3.9
2020-Jan-28 03:45 280 0 gusting 5 3.9
2020-Jan-28 03:30 272 0 gusting 5 3.9
2020-Jan-28 03:15 3.9
2020-Jan-28 03:00 276 0 gusting 4 4.4
2020-Jan-28 02:45 279 4.4
2020-Jan-28 02:30 273 0 gusting 3 4.4
2020-Jan-28 02:15 270 0 gusting 1 4.4
2020-Jan-28 02:00 278 4.4
2020-Jan-28 01:45 349 3.9
2020-Jan-28 01:30 3.9
2020-Jan-28 01:15 3.9
2020-Jan-28 01:00 254 4.4
2020-Jan-28 00:45 4.4
2020-Jan-28 00:30 271 5.0
2020-Jan-28 00:15 271 1 gusting 5 5.0
2020-Jan-28 00:00 274 5.0
2020-Jan-27 23:45 271 0 gusting 4 5.6
2020-Jan-27 23:30 269 0 gusting 2 5.6
2020-Jan-27 23:15 271 2 gusting 6 5.6
2020-Jan-27 23:00 300 0 gusting 4 5.6
2020-Jan-27 22:45 269 2 gusting 7 6.1
2020-Jan-27 22:30 254 0 gusting 5 6.1
2020-Jan-27 22:15 283 0 gusting 4 6.1
2020-Jan-27 22:00 259 1 gusting 9 6.1
2020-Jan-27 21:45 330 0 gusting 3 6.1
2020-Jan-27 21:30 327 0 gusting 5 6.7
2020-Jan-27 21:15 344 1 gusting 5 6.7
2020-Jan-27 21:00 295 0 gusting 3 6.7
2020-Jan-27 20:45 302 0 gusting 2 7.2
2020-Jan-27 20:30 257 1 gusting 6 7.2
2020-Jan-27 20:15 285 3 gusting 10 7.2
2020-Jan-27 20:00 304 3 gusting 12 7.8
2020-Jan-27 19:45 274 2 gusting 6 7.8
2020-Jan-27 19:30 259 1 gusting 5 7.8
2020-Jan-27 19:15 276 3 gusting 7 7.8
2020-Jan-27 19:00 255 3 gusting 10 7.8
2020-Jan-27 18:45 352 1 gusting 9 8.9
2020-Jan-27 18:30 290 3 gusting 13 9.4
2020-Jan-27 18:15 034 2 gusting 10 8.3
2020-Jan-27 18:00 274 1 gusting 4 8.3
2020-Jan-27 17:45 252 4 gusting 10 8.9
2020-Jan-27 17:30 293 4 gusting 9 9.4
2020-Jan-27 17:15 310 3 gusting 6 8.9
2020-Jan-27 17:00 264 2 gusting 12 8.3
2020-Jan-27 16:45 253 2 gusting 13 7.8
2020-Jan-27 16:30 251 0 gusting 6 7.8
2020-Jan-27 16:15 278 2 gusting 6 7.8
2020-Jan-27 16:00 283 1 gusting 3 7.2
2020-Jan-27 15:45 288 1 gusting 5 7.2
2020-Jan-27 15:30 274 2 gusting 6 6.7
2020-Jan-27 15:15 254 0 gusting 4 6.1
2020-Jan-27 15:01 250 2 gusting 4 6.1
2020-Jan-27 14:45 275 1 gusting 4 5.6
2020-Jan-27 14:31 255 3 gusting 8 5.6
2020-Jan-27 14:15 267 2 gusting 6 5.0
2020-Jan-27 14:00 249 1 gusting 4 5.0
2020-Jan-27 13:45 257 1 gusting 5 4.4
2020-Jan-27 13:30 255 0 gusting 2 3.3
2020-Jan-27 13:16 270 1 gusting 4 3.3
2020-Jan-27 13:00 266 1 gusting 3 3.3
2020-Jan-27 12:45 258 0 gusting 4 3.3
2020-Jan-27 12:31 279 1 gusting 4 3.3
2020-Jan-27 12:16 278 2.8
2020-Jan-27 12:00 262 2.8
2020-Jan-27 11:45 269 0 gusting 2 2.2
2020-Jan-27 11:30 272 2.2
2020-Jan-27 11:16 264 2.2
2020-Jan-27 11:00 276 0 gusting 3 2.2
2020-Jan-27 10:45 273 1.7
2020-Jan-27 10:30 258 1.7
2020-Jan-27 10:15 259 1.1
2020-Jan-27 10:00 258 1.1
2020-Jan-27 09:45 1.1
2020-Jan-27 09:30 258 1.7
2020-Jan-27 09:15 282 1.7
2020-Jan-27 09:00 270 2.2
2020-Jan-27 08:45 266 2.2
2020-Jan-27 08:30 261 2.2
2020-Jan-27 08:15 259 1.7
2020-Jan-27 08:00 283 1.7
2020-Jan-27 07:45 263 1.7
2020-Jan-27 07:30 273 1.7
2020-Jan-27 07:15 280 1.7
2020-Jan-27 07:00 1.7
2020-Jan-27 06:45 1.1
2020-Jan-27 06:30 1.1
2020-Jan-27 06:15 1.1
2020-Jan-27 06:00 0.6
2020-Jan-27 05:45 0.6
2020-Jan-27 05:30 0.6
2020-Jan-27 05:15 -0.0
2020-Jan-27 05:00 -0.0
2020-Jan-27 04:45 0.6
2020-Jan-27 04:30 252 1.1
2020-Jan-27 04:15 1.7
2020-Jan-27 04:00 1.7
2020-Jan-27 03:45 2.2
2020-Jan-27 03:30 2.8
2020-Jan-27 03:15 3.3
2020-Jan-27 03:00 259 3.9
2020-Jan-27 02:45 270 0 gusting 2 3.9
2020-Jan-27 02:30 258 3.9
2020-Jan-27 02:15 310 0 gusting 4 4.4
2020-Jan-27 02:00 264 1 gusting 5 4.4
2020-Jan-27 01:45 256 4.4
2020-Jan-27 01:30 266 0 gusting 4 4.4
2020-Jan-27 01:15 269 0 gusting 7 4.4
2020-Jan-27 01:00 297 0 gusting 5 4.4
2020-Jan-27 00:46 309 0 gusting 5 4.4
2020-Jan-27 00:30 284 0 gusting 4 5.0
2020-Jan-27 00:15 285 0 gusting 5 5.0
2020-Jan-27 00:00 274 0 gusting 5 5.0
2020-Jan-26 23:45 302 0 gusting 3 5.0
2020-Jan-26 23:30 320 1 gusting 9 5.6
2020-Jan-26 23:15 279 0 gusting 2 5.0
2020-Jan-26 23:00 248 1 gusting 3 5.6
2020-Jan-26 22:45 290 0 gusting 4 5.6
2020-Jan-26 22:30 5.6
2020-Jan-26 22:15 5.6
2020-Jan-26 22:00 6.1